Total_Precipitation_Accumulation
0.07 0.07 0.06 0.05 0.04 0.03 0.02 0.02 0.00 0.00 0.00 0.00 0.00 0.00 0.00 0.00 0.00 0.00 0.00 0.02 0.03 0.05 0.07 0.08 0.07 0.07 0.08 0.08 0.09 0.09 0.08 0.07 0.06 0.05 0.03 0.01 0.01 0.01 0.01 0.01 0.02 0.02 0.03
0.11 0.11 0.08 0.05 0.02 0.01 0.02 0.01 0.01 0.00 0.00 0.00 0.00 0.00 0.00 0.00 0.00 0.00 0.01 0.03 0.06 0.05 0.07 0.08 0.08 0.09 0.09 0.10 0.10 0.10 0.10 0.09 0.10 0.09 0.08 0.07 0.05 0.04 0.03 0.04 0.05 0.05 0.04
0.04 0.05 0.05 0.04 0.02 0.01 0.01 0.01 0.01 0.00 0.00 0.01 0.01 0.01 0.01 0.01 0.01 0.01 0.01 0.01 0.04 0.06 0.07 0.06 0.06 0.07 0.08 0.10 0.11 0.12 0.12 0.11 0.11 0.11 0.11 0.11 0.10 0.10 0.10 0.09 0.09 0.10 0.09
0.01 0.01 0.03 0.04 0.02 0.02 0.02 0.02 0.02 0.01 0.02 0.02 0.03 0.04 0.03 0.03 0.03 0.03 0.02 0.02 0.03 0.04 0.06 0.06 0.06 0.06 0.06 0.07 0.08 0.11 0.14 0.16 0.16 0.15 0.14 0.14 0.14 0.13 0.15 0.16 0.16 0.16 0.15
0.03 0.03 0.06 0.07 0.06 0.07 0.07 0.06 0.06 0.05 0.04 0.03 0.03 0.02 0.01 0.01 0.01 0.01 0.01 0.01 0.02 0.02 0.02 0.04 0.05 0.06 0.05 0.05 0.05 0.06 0.08 0.11 0.15 0.16 0.15 0.14 0.17 0.17 0.16 0.15 0.17 0.19 0.20
0.10 0.11 0.14 0.14 0.13 0.11 0.10 0.09 0.07 0.05 0.03 0.02 0.02 0.01 0.01 0.01 0.01 0.01 0.02 0.01 0.01 0.01 0.00 0.00 0.01 0.02 0.03 0.03 0.03 0.03 0.03 0.04 0.08 0.10 0.11 0.14 0.18 0.18 0.15 0.14 0.16 0.20 0.22
0.24 0.23 0.22 0.21 0.18 0.13 0.10 0.07 0.05 0.02 0.01 0.01 0.01 0.01 0.00 0.01 0.00 0.00 0.00 0.00 0.00 0.00 0.00 0.00 0.00 0.00 0.00 0.01 0.01 0.01 0.01 0.02 0.03 0.05 0.07 0.13 0.15 0.12 0.12 0.11 0.13 0.17 0.21
0.38 0.34 0.30 0.25 0.19 0.12 0.08 0.05 0.03 0.02 0.01 0.01 0.00 0.00 0.00 0.00 0.00 0.00 0.00 0.00 0.00 0.00 0.00 0.00 0.00 0.00 0.00 0.00 0.00 0.01 0.01 0.02 0.01 0.03 0.05 0.10 0.13 0.11 0.10 0.11 0.11 0.13 0.19
0.50 0.41 0.33 0.25 0.19 0.13 0.08 0.04 0.02 0.01 0.00 0.00 0.00 0.00 0.00 0.00 0.00 0.00 0.00 0.00 0.00 0.00 0.00 0.00 0.00 0.00 0.00 0.00 0.00 0.00 0.01 0.02 0.01 0.01 0.04 0.08 0.11 0.11 0.11 0.12 0.13 0.14 0.18
0.48 0.38 0.30 0.22 0.15 0.08 0.04 0.01 0.00 0.00 0.00 0.00 0.00 0.00 0.00 0.00 0.01 0.00 0.00 0.00 0.00 0.00 0.00 0.00 0.00 0.00 0.00 0.00 0.00 0.00 0.00 0.01 0.02 0.02 0.02 0.04 0.08 0.10 0.11 0.11 0.12 0.15 0.17
0.34 0.26 0.17 0.10 0.05 0.02 0.01 0.00 0.00 0.00 0.00 0.00 0.00 0.00 0.00 0.00 0.01 0.01 0.01 0.00 0.00 0.00 0.00 0.00 0.00 0.00 0.00 0.00 0.01 0.01 0.01 0.01 0.02 0.03 0.02 0.02 0.04 0.08 0.11 0.11 0.11 0.13 0.15
0.23 0.14 0.07 0.03 0.01 0.00 0.00 0.00 0.00 0.00 0.00 0.00 0.00 0.00 0.00 0.00 0.00 0.00 0.00 0.00 0.00 0.00 0.00 0.00 0.00 0.00 0.00 0.00 0.00 0.00 0.01 0.02 0.03 0.03 0.02 0.02 0.02 0.04 0.06 0.09 0.11 0.13 0.15
0.08 0.04 0.02 0.01 0.00 0.00 0.00 0.00 0.00 0.00 0.00 0.00 0.00 0.00 0.00 0.00 0.00 0.00 0.00 0.00 0.00 0.00 0.00 0.00 0.00 0.00 0.00 0.00 0.00 0.00 0.01 0.03 0.03 0.03 0.02 0.01 0.01 0.01 0.02 0.03 0.05 0.08 0.12
0.03 0.01 0.00 0.00 0.00 0.00 0.00 0.00 0.00 0.00 0.00 0.00 0.00 0.01 0.01 0.00 0.00 0.00 0.00 0.01 0.01 0.00 0.00 0.00 0.00 0.00 0.00 0.00 0.00 0.00 0.02 0.02 0.03 0.03 0.03 0.02 0.01 0.01 0.01 0.02 0.02 0.04 0.05
0.01 0.01 0.00 0.00 0.00 0.00 0.00 0.00 0.00 0.00 0.00 0.00 0.00 0.00 0.01 0.00 0.01 0.01 0.02 0.03 0.06 0.05 0.02 0.00 0.00 0.00 0.00 0.00 0.00 0.01 0.04 0.05 0.04 0.04 0.04 0.03 0.02 0.02 0.02 0.02 0.02 0.02 0.03
0.01 0.00 0.00 0.00 0.00 0.00 0.00 0.00 0.00 0.00 0.00 0.00 0.01 0.01 0.02 0.02 0.03 0.03 0.05 0.05 0.06 0.07 0.06 0.01 0.01 0.01 0.01 0.02 0.01 0.03 0.05 0.05 0.04 0.03 0.03 0.03 0.03 0.04 0.03 0.03 0.04 0.04 0.03
0.01 0.00 0.00 0.00 0.00 0.00 0.00 0.00 0.00 0.00 0.01 0.01 0.02 0.02 0.04 0.05 0.06 0.06 0.06 0.05 0.05 0.08 0.10 0.04 0.02 0.02 0.05 0.07 0.07 0.10 0.11 0.11 0.10 0.07 0.06 0.07 0.07 0.07 0.06 0.07 0.07 0.07 0.07
0.00 0.00 0.00 0.00 0.00 0.00 0.00 0.00 0.01 0.01 0.02 0.02 0.03 0.04 0.05 0.05 0.07 0.06 0.06 0.05 0.06 0.08 0.11 0.09 0.07 0.07 0.08 0.11 0.11 0.11 0.06 0.05 0.10 0.08 0.08 0.09 0.10 0.10 0.10 0.10 0.10 0.08 0.06
0.00 0.01 0.01 0.01 0.01 0.00 0.01 0.01 0.01 0.02 0.02 0.03 0.03 0.04 0.05 0.05 0.06 0.05 0.04 0.04 0.05 0.07 0.12 0.14 0.12 0.11 0.10 0.08 0.09 0.08 0.08 0.12 0.09 0.08 0.08 0.08 0.08 0.08 0.07 0.06 0.06 0.06 0.05
0.01 0.01 0.01 0.01 0.00 0.00 0.00 0.00 0.01 0.01 0.01 0.02 0.03 0.03 0.03 0.04 0.04 0.04 0.04 0.05 0.08 0.11 0.13 0.15 0.13 0.09 0.07 0.06 0.09 0.09 0.09 0.10 0.10 0.08 0.07 0.06 0.05 0.03 0.03 0.02 0.03 0.03 0.04
0.01 0.01 0.00 0.00 0.00 0.00 0.00 0.00 0.00 0.00 0.00 0.01 0.02 0.02 0.02 0.03 0.05 0.05 0.06 0.07 0.11 0.14 0.14 0.14 0.12 0.08 0.06 0.06 0.07 0.09 0.09 0.06 0.05 0.04 0.04 0.02 0.02 0.02 0.02 0.02 0.01 0.02 0.02
0.00 0.00 0.00 0.00 0.00 0.00 0.00 0.00 0.00 0.00 0.00 0.01 0.02 0.02 0.02 0.02 0.02 0.03 0.05 0.09 0.13 0.15 0.15 0.14 0.11 0.09 0.06 0.06 0.10 0.13 0.12 0.12 0.10 0.06 0.06 0.04 0.02 0.02 0.02 0.03 0.05 0.05 0.04
0.00 0.01 0.00 0.00 0.01 0.01 0.00 0.00 0.00 0.00 0.01 0.02 0.03 0.04 0.02 0.01 0.02 0.04 0.05 0.06 0.06 0.07 0.10 0.15 0.14 0.09 0.08 0.10 0.19 0.21 0.20 0.19 0.16 0.12 0.12 0.10 0.05 0.04 0.04 0.06 0.10 0.10 0.08
0.00 0.00 0.00 0.01 0.02 0.02 0.00 0.00 0.00 0.01 0.01 0.02 0.03 0.04 0.04 0.03 0.03 0.05 0.04 0.03 0.03 0.02 0.04 0.08 0.12 0.11 0.11 0.14 0.23 0.28 0.26 0.24 0.18 0.13 0.17 0.19 0.10 0.07 0.06 0.09 0.15 0.15 0.11
0.00 0.00 0.00 0.01 0.02 0.03 0.01 0.00 0.00 0.01 0.01 0.01 0.02 0.02 0.04 0.04 0.06 0.08 0.06 0.04 0.04 0.03 0.05 0.13 0.19 0.22 0.26 0.31 0.33 0.33 0.33 0.31 0.25 0.19 0.23 0.29 0.23 0.17 0.12 0.12 0.15 0.17 0.18
0.01 0.01 0.01 0.01 0.02 0.03 0.02 0.00 0.01 0.01 0.01 0.01 0.01 0.02 0.05 0.06 0.06 0.07 0.05 0.07 0.09 0.07 0.11 0.17 0.27 0.41 0.45 0.44 0.41 0.36 0.32 0.31 0.30 0.34 0.33 0.36 0.31 0.22 0.18 0.17 0.16 0.16 0.20